• In Hungary
  • List of Countries
  • For 7 days
  • Water Temperature
  • Satellite Maps
  • Weather Map
  • News
  • Weather Widgets
  • user-avatar
    Login

    Hourly Weather Ogrodek

    Today, 21 October, Saturday

    Time Temperature Precipitation Wind Pressure Humidity
    00:00 +8°C° 0 mm 2 mps 751 mmHg 93%
    01:00 +7°C° 0 mm 3 mps 751 mmHg 94%
    02:00 +7°C° 0 mm 2 mps 751 mmHg 94%
    03:00 +7°C° 0 mm 2 mps 750 mmHg 94%
    04:00 +7°C° 0 mm 2 mps 750 mmHg 94%
    05:00 +7°C° 0 mm 2 mps 750 mmHg 93%
    06:00 +7°C° 0 mm 2 mps 750 mmHg 93%
    07:00 +8°C° 0 mm 2 mps 749 mmHg 90%
    08:00 +8°C° 0.4 mm 2 mps 749 mmHg 89%
    09:00 +9°C° 0.4 mm 2 mps 749 mmHg 88%
    10:00 +9°C° 0.4 mm 2 mps 749 mmHg 87%
    11:00 +9°C° 0.5 mm 2 mps 749 mmHg 88%
    12:00 +9°C° 0.5 mm 2 mps 749 mmHg 88%
    13:00 +9°C° 0.5 mm 2 mps 749 mmHg 89%
    14:00 +9°C° 0.3 mm 2 mps 749 mmHg 89%
    15:00 +9°C° 0.3 mm 2 mps 749 mmHg 90%
    16:00 +8°C° 0.3 mm 3 mps 749 mmHg 91%
    17:00 +8°C° 0 mm 3 mps 750 mmHg 91%
    18:00 +7°C° 0 mm 3 mps 750 mmHg 91%
    19:00 +7°C° 0 mm 3 mps 750 mmHg 91%
    20:00 +7°C° 0 mm 3 mps 751 mmHg 90%
    21:00 +5°C° 0 mm 3 mps 751 mmHg 90%
    22:00 +5°C° 0 mm 3 mps 751 mmHg 90%
    23:00 +5°C° 0 mm 3 mps 752 mmHg 90%

    Tomorrow, 22 October, Sunday

    Time Temperature Precipitation Wind Pressure Humidity
    00:00 +4°C° 0 mm 3 mps 752 mmHg 90%
    01:00 +4°C° 0 mm 3 mps 752 mmHg 90%
    02:00 +4°C° 0 mm 3 mps 752 mmHg 91%
    03:00 +3°C° 0 mm 3 mps 752 mmHg 92%
    04:00 +3°C° 0 mm 3 mps 752 mmHg 93%
    05:00 +3°C° 0 mm 4 mps 752 mmHg 92%
    06:00 +1°C° 0 mm 4 mps 752 mmHg 92%
    07:00 +1°C° 0 mm 4 mps 752 mmHg 92%
    08:00 +3°C° 0 mm 4 mps 752 mmHg 88%
    09:00 +4°C° 0 mm 4 mps 752 mmHg 84%
    10:00 +5°C° 0 mm 5 mps 752 mmHg 80%
    11:00 +6°C° 0 mm 5 mps 752 mmHg 78%
    12:00 +6°C° 0 mm 5 mps 751 mmHg 76%
    13:00 +7°C° 0 mm 5 mps 751 mmHg 74%
    14:00 +6°C° 0 mm 4 mps 751 mmHg 76%
    15:00 +6°C° 0 mm 4 mps 751 mmHg 78%
    16:00 +7°C° 0 mm 3 mps 750 mmHg 80%
    17:00 +5°C° 0 mm 3 mps 750 mmHg 81%
    18:00 +5°C° 0 mm 3 mps 750 mmHg 82%
    19:00 +5°C° 0 mm 3 mps 750 mmHg 83%
    20:00 +5°C° 0.1 mm 3 mps 750 mmHg 83%
    21:00 +5°C° 0.1 mm 3 mps 750 mmHg 83%
    22:00 +5°C° 0.1 mm 3 mps 750 mmHg 83%
    23:00 +5°C° 0.2 mm 3 mps 750 mmHg 84%

    Day after tomorrow, 23 October, Monday

    Time Temperature Precipitation Wind Pressure Humidity
    00:00 +4°C° 0.2 mm 3 mps 750 mmHg 85%
    01:00 +4°C° 0.2 mm 3 mps 750 mmHg 86%
    02:00 +4°C° 0.2 mm 3 mps 750 mmHg 86%
    03:00 +4°C° 0.2 mm 3 mps 749 mmHg 87%
    04:00 +4°C° 0.2 mm 3 mps 749 mmHg 87%
    05:00 +4°C° 0.2 mm 3 mps 749 mmHg 87%
    06:00 +4°C° 0.2 mm 3 mps 749 mmHg 86%
    07:00 +4°C° 0.2 mm 4 mps 750 mmHg 86%
    08:00 +4°C° 0.1 mm 4 mps 750 mmHg 84%
    09:00 +4°C° 0.1 mm 4 mps 750 mmHg 82%
    10:00 +5°C° 0.1 mm 4 mps 750 mmHg 79%
    11:00 +5°C° 0 mm 4 mps 750 mmHg 77%
    12:00 +6°C° 0 mm 4 mps 750 mmHg 75%
    13:00 +6°C° 0 mm 4 mps 751 mmHg 73%
    14:00 +6°C° 0 mm 4 mps 751 mmHg 74%
    15:00 +6°C° 0 mm 4 mps 751 mmHg 75%
    16:00 +5°C° 0 mm 3 mps 751 mmHg 76%
    17:00 +5°C° 0 mm 4 mps 752 mmHg 76%
    18:00 +5°C° 0 mm 4 mps 752 mmHg 77%
    19:00 +4°C° 0 mm 4 mps 753 mmHg 77%
    20:00 +4°C° 0 mm 4 mps 753 mmHg 77%
    21:00 +3°C° 0 mm 4 mps 754 mmHg 78%
    22:00 +3°C° 0 mm 4 mps 754 mmHg 78%
    23:00 +1°C° 0 mm 4 mps 755 mmHg 80%

    24 October, Tuesday

    Time Temperature Precipitation Wind Pressure Humidity
    00:00 +1°C° 0 mm 4 mps 755 mmHg 81%
    01:00 0°C° 0 mm 4 mps 755 mmHg 82%
    02:00 0°C° 0 mm 4 mps 756 mmHg 83%
    03:00 0°C° 0 mm 3 mps 756 mmHg 83%
    04:00 0°C° 0 mm 3 mps 757 mmHg 84%
    05:00 0°C° 0 mm 3 mps 757 mmHg 83%
    06:00 -1°C° 0 mm 3 mps 758 mmHg 83%
    07:00 -1°C° 0 mm 3 mps 758 mmHg 82%
    08:00 -1°C° 0 mm 4 mps 759 mmHg 77%
    09:00 +1°C° 0 mm 4 mps 759 mmHg 71%
    10:00 +3°C° 0 mm 4 mps 759 mmHg 65%
    11:00 +4°C° 0 mm 4 mps 759 mmHg 62%
    12:00 +4°C° 0 mm 4 mps 760 mmHg 59%
    13:00 +5°C° 0 mm 4 mps 760 mmHg 55%
    14:00 +4°C° 0 mm 3 mps 760 mmHg 59%
    15:00 +4°C° 0 mm 3 mps 760 mmHg 63%
    16:00 +4°C° 0 mm 2 mps 760 mmHg 66%
    17:00 +2°C° 0 mm 3 mps 761 mmHg 69%
    18:00 +1°C° 0 mm 3 mps 761 mmHg 72%
    19:00 +1°C° 0 mm 3 mps 761 mmHg 75%
    20:00 0°C° 0 mm 3 mps 762 mmHg 77%
    21:00 0°C° 0 mm 3 mps 762 mmHg 79%
    22:00 -1°C° 0 mm 2 mps 762 mmHg 81%
    23:00 -1°C° 0 mm 2 mps 762 mmHg 83%

    25 October, Wednesday

    Time Temperature Precipitation Wind Pressure Humidity
    00:00 -1°C° 0 mm 2 mps 763 mmHg 84%
    01:00 -2°C° 0 mm 2 mps 763 mmHg 85%
    02:00 -2°C° 0 mm 2 mps 763 mmHg 86%
    03:00 -2°C° 0 mm 3 mps 763 mmHg 86%
    04:00 -2°C° 0 mm 3 mps 763 mmHg 86%
    05:00 -2°C° 0 mm 3 mps 763 mmHg 85%
    06:00 -2°C° 0 mm 3 mps 763 mmHg 83%
    07:00 -2°C° 0 mm 3 mps 763 mmHg 82%
    08:00 0°C° 0 mm 3 mps 763 mmHg 74%
    09:00 +1°C° 0 mm 3 mps 764 mmHg 67%
    10:00 +3°C° 0 mm 4 mps 764 mmHg 59%
    11:00 +3°C° 0 mm 4 mps 763 mmHg 56%
    12:00 +4°C° 0 mm 4 mps 763 mmHg 54%
    13:00 +5°C° 0 mm 4 mps 762 mmHg 51%
    14:00 +4°C° 0 mm 4 mps 762 mmHg 55%
    15:00 +3°C° 0 mm 3 mps 762 mmHg 59%
    16:00 +2°C° 0 mm 3 mps 762 mmHg 63%
    17:00 +2°C° 0 mm 3 mps 762 mmHg 64%
    18:00 +2°C° 0 mm 3 mps 762 mmHg 64%
    19:00 0°C° 0 mm 4 mps 762 mmHg 65%
    20:00 +1°C° 0 mm 4 mps 762 mmHg 64%
    21:00 +1°C° 0 mm 5 mps 762 mmHg 63%
    22:00 +1°C° 0 mm 5 mps 761 mmHg 62%
    23:00 +1°C° 0 mm 5 mps 761 mmHg 63%

    26 October, Thursday

    Time Temperature Precipitation Wind Pressure Humidity
    00:00 +1°C° 0 mm 5 mps 761 mmHg 64%
    01:00 0°C° 0 mm 5 mps 761 mmHg 64%
    02:00 0°C° 0.1 mm 5 mps 760 mmHg 65%
    03:00 +1°C° 0.1 mm 6 mps 759 mmHg 66%
    04:00 +1°C° 0.1 mm 6 mps 759 mmHg 67%
    05:00 +1°C° 0.3 mm 6 mps 758 mmHg 69%
    06:00 +1°C° 0.3 mm 6 mps 758 mmHg 70%
    07:00 +1°C° 0.3 mm 6 mps 757 mmHg 72%
    08:00 +1°C° 0.9 mm 6 mps 757 mmHg 75%
    09:00 +1°C° 0.9 mm 6 mps 757 mmHg 78%
    10:00 +1°C° 0.9 mm 6 mps 757 mmHg 81%
    11:00 +2°C° 0.1 mm 6 mps 756 mmHg 82%
    12:00 +2°C° 0.1 mm 5 mps 756 mmHg 83%
    13:00 +2°C° 0.1 mm 5 mps 755 mmHg 83%
    14:00 +3°C° 0 mm 5 mps 755 mmHg 86%
    15:00 +4°C° 0 mm 4 mps 754 mmHg 88%
    16:00 +4°C° 0 mm 4 mps 754 mmHg 90%
    17:00 +4°C° 0 mm 4 mps 754 mmHg 92%
    18:00 +5°C° 0 mm 3 mps 753 mmHg 94%
    19:00 +5°C° 0 mm 3 mps 753 mmHg 96%
    20:00 +5°C° 0 mm 3 mps 752 mmHg 97%
    21:00 +7°C° 0 mm 3 mps 752 mmHg 97%
    22:00 +7°C° 0 mm 3 mps 752 mmHg 98%
    23:00 +7°C° 0 mm 2 mps 751 mmHg 98%
    Show more